Portland, OR

1:16 PM PDT on April 22, 2018 (GMT -0700)
Portland International

Weather History for KPDX - November, 2013

Change the Weather History Date:

Sunday, November 17, 2013

  Actual Average Record
Temperature  
Mean Temperature 51 °F 46 °F  
Max Temperature 56 °F 52 °F 63 °F (2007)
Min Temperature 46 °F 40 °F 23 °F (1961)
Degree Days  
Heating Degree Days 14 19  
Month to date heating degree days 268 283  
Since 1 July heating degree days 707 701  
Cooling Degree Days 0 0  
Month to date cooling degree days 0 0  
Year to date cooling degree days 539 424  
Moisture  
Dew Point 43 °F    
Average Humidity 76    
Maximum Humidity 86    
Minimum Humidity 66    
Precipitation  
Precipitation 0.00 in 0.19 in 1.46 in (1946)
Month to date precipitation 2.33 3.01  
Year to date precipitation 24.38 27.92  
Snow  
Snow 0.00 in - 4.50 in (1955)
Month to date snowfall 0.0  
Since 1 July snowfall 0.0  
Since 1 September snowfall 0.0  
Snow Depth 0.00 in    
Sea Level Pressure  
Sea Level Pressure 29.96 in    
Wind  
Wind Speed 11 mph (SSW)    
Max Wind Speed 22 mph    
Max Gust Speed 28 mph    
Visibility 10 miles    
Events      
T = Trace of Precipitation, MM = Missing Value Source: NWS Daily Summary

Daily Weather History Graph

Daily Weather History Graph

Search for Another Location

Airport or City:

Astronomy

Nov. 17, 2013 Rise Set
Actual Time 7:12 AM PST 4:37 PM PST
Civil Twilight 6:40 AM PST 5:09 PM PST
Nautical Twilight 6:04 AM PST 5:46 PM PST
Astronomical Twilight 5:29 AM PST 6:21 PM PST
Moon 4:58 PM PST (11/17) 7:11 AM PST (11/17)
Length of Visible Light 10h 29m
Length of Day
9h 24m
Full, 100% of the Moon is Illuminated
Nov 17
Full
Nov 25
Last Quarter
Dec 2
New
Dec 9
First Quarter
Dec 17
Full

Hourly Weather History & Observations

Time (PST) Temp. Windchill Dew Point Humidity Pressure Visibility Wind Dir Wind Speed Gust Speed Precip Events Conditions
12:53 AM 46.9 °F - 41.0 °F 80% 29.87 in 10.0 mi SW 5.8 mph - N/A   Overcast
1:53 AM 46.9 °F - 41.0 °F 80% 29.89 in 10.0 mi WSW 4.6 mph - N/A   Mostly Cloudy
2:53 AM 46.9 °F - 41.0 °F 80% 29.90 in 10.0 mi South 3.5 mph - N/A   Overcast
3:53 AM 46.9 °F - 42.1 °F 83% 29.90 in 10.0 mi SSW 11.5 mph - N/A   Overcast
4:53 AM 46.0 °F 41.9 °F 42.1 °F 86% 29.91 in 10.0 mi SSW 8.1 mph - N/A   Mostly Cloudy
5:53 AM 46.9 °F - 42.1 °F 83% 29.92 in 10.0 mi South 10.4 mph - N/A   Overcast
6:53 AM 46.9 °F - 42.1 °F 83% 29.93 in 10.0 mi South 11.5 mph 21.9 mph N/A   Mostly Cloudy
7:53 AM 48.0 °F - 43.0 °F 83% 29.95 in 10.0 mi South 13.8 mph 21.9 mph N/A   Mostly Cloudy
8:53 AM 48.9 °F - 44.1 °F 83% 29.96 in 10.0 mi SSW 15.0 mph 23.0 mph N/A   Mostly Cloudy
9:53 AM 51.1 °F - 44.1 °F 77% 29.98 in 10.0 mi SSW 16.1 mph 21.9 mph N/A   Mostly Cloudy
10:53 AM 53.1 °F - 44.1 °F 71% 29.99 in 10.0 mi SSW 16.1 mph 24.2 mph N/A   Scattered Clouds
11:35 AM 51.8 °F - 44.6 °F 76% 29.98 in 10.0 mi South 15.0 mph 21.9 mph N/A   Mostly Cloudy
11:53 AM 52.0 °F - 44.1 °F 74% 29.98 in 10.0 mi South 15.0 mph 21.9 mph N/A   Mostly Cloudy
12:53 PM 54.0 °F - 44.1 °F 69% 29.96 in 10.0 mi South 11.5 mph - N/A   Overcast
1:48 PM 55.4 °F - 44.6 °F 67% 29.96 in 10.0 mi SSW 13.8 mph 25.3 mph N/A   Mostly Cloudy
1:53 PM 55.0 °F - 44.1 °F 67% 29.96 in 10.0 mi SSW 17.3 mph 26.5 mph N/A   Mostly Cloudy
2:53 PM 54.0 °F - 44.1 °F 69% 29.96 in 10.0 mi SSW 16.1 mph 25.3 mph N/A   Mostly Cloudy
3:53 PM 53.1 °F - 44.1 °F 71% 29.97 in 10.0 mi South 13.8 mph 26.5 mph N/A   Overcast
4:53 PM 53.1 °F - 44.1 °F 71% 29.97 in 10.0 mi South 9.2 mph - N/A   Overcast
5:53 PM 52.0 °F - 44.1 °F 74% 29.98 in 10.0 mi South 9.2 mph - N/A   Mostly Cloudy
6:53 PM 53.1 °F - 44.1 °F 71% 29.99 in 10.0 mi South 9.2 mph 19.6 mph N/A   Overcast
7:53 PM 53.1 °F - 43.0 °F 69% 29.99 in 10.0 mi SSW 11.5 mph - N/A   Overcast
8:53 PM 53.1 °F - 43.0 °F 69% 29.99 in 10.0 mi SSW 12.7 mph 19.6 mph N/A   Overcast
9:53 PM 53.1 °F - 44.1 °F 71% 30.00 in 10.0 mi South 10.4 mph - N/A   Overcast
10:53 PM 52.0 °F - 44.1 °F 74% 29.99 in 10.0 mi South 11.5 mph - N/A   Mostly Cloudy
11:53 PM 51.1 °F - 43.0 °F 74% 29.99 in 10.0 mi SSE 6.9 mph - N/A   Mostly Cloudy